KLM753 SEGU-EHAM

Flight info

Callsign KLM753
Flight time N/A
Altitude 35000
Route SEGU/21 REGAP2 PAMIS UP533 BOKAN UP778 RNG/N0494F350 DCT UGALU DCT ELB DCT RHC DCT AMBAS DCT KARUM DCT MELLA/N0483F370 DCT OPAUL/M083F370 DCT 26N060W 35N050W/M083F390 41N040W 45N030W 4830N02000W DCT SOMAX DCT ATSUR DCT TUVEN DCT LESLU/N0470F390 DCT BAPHU DCT GAJIT DCT ENHAQ M197 REDFA REDF1A EHAM/36R
Aircraft B772/H-VGDW/C

Departure

Time 2026-04-19 04:21
Airport José Joaquín de Olmedo International Airport (SEGU)

Arrival

Time N/A
Airport Amsterdam Airport Schiphol (EHAM)
Time Latitude Longitude Altitude Speed Heading
2026-04-19 04:03 -2.14958 -79.88373 33 ft 0 kts 300°
2026-04-19 04:12 -2.14961 -79.88368 33 ft 2 kts 300°
2026-04-19 04:12 -2.14971 -79.88351 33 ft 2 kts 300°
2026-04-19 04:12 -2.14979 -79.88338 33 ft 3 kts 310°
2026-04-19 04:13 -2.14991 -79.88327 32 ft 3 kts 342°
2026-04-19 04:13 -2.15004 -79.88325 33 ft 3 kts 18°
2026-04-19 04:13 -2.15022 -79.88333 32 ft 3 kts 31°
2026-04-19 04:13 -2.15033 -79.88339 33 ft 0 kts 30°
2026-04-19 04:17 -2.15031 -79.88338 33 ft 1 kts 30°
2026-04-19 04:18 -2.15008 -79.88325 33 ft 7 kts 30°
2026-04-19 04:18 -2.14960 -79.88298 33 ft 8 kts 30°
2026-04-19 04:18 -2.14903 -79.88265 33 ft 11 kts 30°
2026-04-19 04:18 -2.14830 -79.88223 33 ft 13 kts 29°
2026-04-19 04:19 -2.14797 -79.88148 33 ft 14 kts 108°
2026-04-19 04:19 -2.14832 -79.88055 33 ft 15 kts 89°
2026-04-19 04:19 -2.14770 -79.87996 33 ft 17 kts 30°
2026-04-19 04:19 -2.14675 -79.87930 33 ft 16 kts 50°
2026-04-19 04:20 -2.14638 -79.87830 33 ft 15 kts 82°
2026-04-19 04:20 -2.14689 -79.87760 32 ft 13 kts 176°
2026-04-19 04:20 -2.14764 -79.87802 31 ft 13 kts 214°
2026-04-19 04:20 -2.14842 -79.87848 32 ft 19 kts 210°
2026-04-19 04:21 -2.15217 -79.88062 33 ft 106 kts 210°
2026-04-19 04:21 -2.16088 -79.88560 41 ft 179 kts 210°
2026-04-19 04:21 -2.17188 -79.89190 905 ft 178 kts 209°
2026-04-19 04:21 -2.18276 -79.89822 1814 ft 186 kts 208°
2026-04-19 04:22 -2.19595 -79.90118 1954 ft 210 kts 169°
2026-04-19 04:22 -2.20893 -79.89330 2098 ft 235 kts 127°
2026-04-19 04:22 -2.21527 -79.87755 2322 ft 257 kts 97°
2026-04-19 04:22 -2.21379 -79.85972 2764 ft 266 kts 69°
2026-04-19 04:23 -2.20363 -79.84440 3361 ft 268 kts 42°
2026-04-19 04:23 -2.18893 -79.83265 3965 ft 270 kts 35°
2026-04-19 04:23 -2.17378 -79.82180 4674 ft 270 kts 34°
2026-04-19 04:23 -2.15850 -79.81075 5386 ft 271 kts 35°
2026-04-19 04:24 -2.14328 -79.79944 6031 ft 273 kts 36°
2026-04-19 04:24 -2.12802 -79.78783 6657 ft 276 kts 37°
2026-04-19 04:24 -2.11271 -79.77598 7221 ft 279 kts 37°
2026-04-19 04:24 -2.09749 -79.76405 7752 ft 282 kts 37°
2026-04-19 04:25 -2.08124 -79.75293 8254 ft 285 kts 31°
2026-04-19 04:25 -2.06387 -79.74287 8777 ft 288 kts 29°
2026-04-19 04:25 -2.04633 -79.73303 9305 ft 290 kts 29°
2026-04-19 04:25 -2.02889 -79.72322 9812 ft 292 kts 30°
2026-04-19 04:26 -2.01682 -79.71636 10086 ft 297 kts 30°
2026-04-19 04:26 -1.99219 -79.70224 10258 ft 319 kts 30°
2026-04-19 04:26 -1.97243 -79.69082 10389 ft 335 kts 30°
2026-04-19 04:26 -1.95171 -79.67879 10527 ft 353 kts 31°
2026-04-19 04:27 -1.93016 -79.66623 10702 ft 370 kts 31°
2026-04-19 04:27 -1.90757 -79.65304 11132 ft 381 kts 31°
2026-04-19 04:27 -1.88443 -79.63953 11664 ft 388 kts 31°
2026-04-19 04:27 -1.86091 -79.62578 12340 ft 391 kts 31°
2026-04-19 04:28 -1.83769 -79.61217 13011 ft 393 kts 31°
2026-04-19 04:28 -1.81392 -79.59826 13632 ft 397 kts 31°
2026-04-19 04:28 -1.78990 -79.58420 14193 ft 401 kts 31°
2026-04-19 04:28 -1.77387 -79.57482 14558 ft 403 kts 31°
2026-04-19 04:29 -1.74153 -79.55590 15264 ft 408 kts 31°
2026-04-19 04:29 -1.72488 -79.54616 15610 ft 410 kts 30°
2026-04-19 04:29 -1.70040 -79.53185 16108 ft 413 kts 30°
2026-04-19 04:29 -1.67536 -79.51720 16577 ft 416 kts 30°
2026-04-19 04:30 -1.65022 -79.50248 17029 ft 420 kts 30°
2026-04-19 04:30 -1.62519 -79.48784 17464 ft 423 kts 30°
2026-04-19 04:30 -1.59965 -79.47290 17899 ft 425 kts 30°
2026-04-19 04:30 -1.57403 -79.45792 18325 ft 428 kts 30°
2026-04-19 04:31 -1.54808 -79.44276 18735 ft 431 kts 30°
2026-04-19 04:31 -1.52233 -79.42771 19123 ft 433 kts 30°
2026-04-19 04:31 -1.49614 -79.41241 19527 ft 436 kts 30°
2026-04-19 04:31 -1.46984 -79.39706 19894 ft 438 kts 30°
2026-04-19 04:32 -1.44337 -79.38160 20256 ft 441 kts 30°
2026-04-19 04:32 -1.41698 -79.36617 20588 ft 443 kts 30°
2026-04-19 04:32 -1.39023 -79.35052 20932 ft 446 kts 30°
2026-04-19 04:32 -1.36359 -79.33497 21264 ft 448 kts 30°
2026-04-19 04:33 -1.33653 -79.31917 21619 ft 450 kts 30°
2026-04-19 04:33 -1.30922 -79.30320 21945 ft 453 kts 30°
2026-04-19 04:33 -1.28225 -79.28744 22257 ft 455 kts 30°
2026-04-19 04:33 -1.25480 -79.27140 22571 ft 457 kts 30°
2026-04-19 04:34 -1.22718 -79.25528 22870 ft 460 kts 30°
2026-04-19 04:34 -1.19941 -79.23905 23162 ft 462 kts 30°
2026-04-19 04:34 -1.17181 -79.22292 23459 ft 464 kts 30°
2026-04-19 04:34 -1.14375 -79.20651 23749 ft 466 kts 29°
2026-04-19 04:35 -1.11600 -79.19030 24039 ft 467 kts 29°
2026-04-19 04:35 -1.08780 -79.17383 24317 ft 470 kts 29°
2026-04-19 04:35 -1.05942 -79.15726 24587 ft 471 kts 29°
2026-04-19 04:35 -1.03136 -79.14087 24869 ft 473 kts 30°
2026-04-19 04:36 -1.00281 -79.12418 25160 ft 474 kts 30°
2026-04-19 04:36 -0.97423 -79.10747 25421 ft 476 kts 30°
2026-04-19 04:36 -0.94575 -79.09082 25667 ft 478 kts 30°
2026-04-19 04:36 -0.91690 -79.07397 25923 ft 479 kts 30°
2026-04-19 04:37 -0.88801 -79.05709 26187 ft 481 kts 30°
2026-04-19 04:37 -0.85942 -79.04039 26411 ft 482 kts 30°
2026-04-19 04:37 -0.83036 -79.02342 26667 ft 484 kts 30°
2026-04-19 04:37 -0.80112 -79.00633 26899 ft 485 kts 30°
2026-04-19 04:38 -0.77219 -78.98861 27131 ft 487 kts 32°